This demonstration page uses our WeatherBlox Daily Observations layout. Learn more.

Hourly Observations for January 20, 2020

Temp ( °F °C ) Dew Point ( °F °C ) Humidity (%) Winds ( mph kmh ) Pressure ( in mb ) Visibility ( mi km ) Precip ( " mm )
12:00 am 00:00 Cloudy 16 -8.9 9 -12.8 74 74 W 6 9 30.53 1034 9 14.48406 0 0
12:53 am 00:53 Cloudy 16 -8.9 9 -12.8 74 74 WNW 10 17 30.5 1033 9 14.48406 0 0
1:28 am 01:28 Cloudy 16 -8.9 9 -12.8 74 74 W 8 13 30.53 1034 9 14.48406 0 0
1:53 am 01:53 Cloudy 16 -8.9 9 -12.8 74 74 W 7 11 30.5 1033 9 14.48406 0 0
2:53 am 02:53 Cloudy 17 -8.3 10 -12.2 74 74 WNW 8 13 30.51 1033 10 16.0934 0.001 0.001
3:53 am 03:53 Cloudy 16 -8.9 10 -12.2 77 77 NNW 7 11 30.51 1033 8 12.87472 0 0
4:25 am 04:25 Cloudy 16 -8.9 10 -12.2 77 77 NW 7 11 30.55 1034 9 14.48406 0 0
4:53 am 04:53 Cloudy 17 -8.3 10 -12.2 74 74 NW 6 9 30.53 1034 10 16.0934 0 0
5:53 am 05:53 Cloudy 17 -8.3 11 -11.7 77 77 NW 6 9 30.54 1034 10 16.0934 0 0
6:53 am 06:53 Cloudy 18 -7.8 11 -11.7 74 74 NNW 5 7 30.56 1035 8 12.87472 0 0
7:53 am 07:53 Cloudy 18 -7.8 11 -11.7 74 74 Calm 30.59 1036 9 14.48406 0 0
8:53 am 08:53 Cloudy 18 -7.8 11 -11.7 74 74 NW 7 11 30.6 1036 7 11.26538 0 0
9:53 am 09:53 Cloudy 19 -7.2 11 -11.7 71 71 NNW 5 7 30.63 1037 9 14.48406 0 0
10:53 am 10:53 Cloudy 20 -6.7 12 -11.1 71 71 NNW 5 7 30.64 1038 10 16.0934 0 0
11:53 am 11:53 Mostly Cloudy 23 -5 14 -10 68 68 N 6 9 30.63 1037 10 16.0934 0 0
12:22 pm 12:22 Mostly Sunny 23 -5 13 -10.6 65 65 VRB 3 6 30.65 1038 10 16.0934 0 0
12:53 pm 12:53 Mostly Sunny 24 -4.4 15 -9.4 68 68 Calm 30.62 1037 10 16.0934 0 0
1:53 pm 13:53 Partly Cloudy 26 -3.3 14 -10 60 60 NW 5 7 30.59 1036 10 16.0934 0 0
2:31 pm 14:31 Mostly Cloudy 26 -3.3 14 -10 60 60 VRB 6 9 30.6 1036 10 16.0934 0 0
2:53 pm 14:53 Cloudy 28 -2.2 15 -9.4 58 58 VRB 6 9 30.58 1035 10 16.0934 0 0
3:14 pm 15:14 Partly Cloudy 27 -2.8 15 -9.4 61 61 E 5 7 30.58 1036 10 16.0934 0 0
3:31 pm 15:31 Mostly Cloudy 28 -2.2 15 -9.4 58 58 N 8 13 30.58 1036 10 16.0934 0 0
3:53 pm 15:53 Mostly Sunny 26 -3.3 14 -10 60 60 N 5 7 30.57 1035 10 16.0934 0 0
4:53 pm 16:53 Cloudy 26 -3.3 14 -10 60 60 NNW 3 6 30.58 1036 10 16.0934 0 0
5:53 pm 17:53 Cloudy 25 -3.9 14 -10 63 63 WNW 3 6 30.58 1036 10 16.0934 0 0
6:53 pm 18:53 Mostly Cloudy 23 -5 15 -9.4 72 72 Calm 30.6 1036 10 16.0934 0 0
7:53 pm 19:53 Cloudy 25 -3.9 15 -9.4 66 66 N 6 9 30.61 1037 10 16.0934 0 0
8:53 pm 20:53 Mostly Clear 23 -5 14 -10 68 68 NNE 3 6 30.61 1037 10 16.0934 0 0
9:32 pm 21:32 Mostly Cloudy 21 -6.1 15 -9.4 78 78 NNE 3 6 30.63 1037 10 16.0934 0 0
9:53 pm 21:53 Cloudy 24 -4.4 15 -9.4 68 68 Calm 30.62 1037 10 16.0934 0 0
10:53 pm 22:53 Cloudy 25 -3.9 15 -9.4 66 66 ENE 3 6 30.62 1037 10 16.0934 0 0
11:15 pm 23:15 Cloudy 25 -3.9 15 -9.4 66 66 NE 3 6 30.63 1037 10 16.0934 0 0
11:53 pm 23:53 Cloudy 25 -3.9 15 -9.4 66 66 Calm 30.61 1037 10 16.0934 0 0

Powered by AerisWeather